| time (UTC) | temp C | wind direction | speed KPH | gust KPH | rain 1hr cm | rain 24hr cm | rain mn cm | humidity % | barometer mb |
| 20260504150815 | 18 | 107 | 0.0 | 0.0 | 0.00 | 0.00 | 0.00 | 57 | 1003.2 |
| 20260504110706 | 10 | 85 | 0.0 | 0.0 | 0.00 | 0.00 | 0.00 | 77 | 1004.4 |
| 20260504030951 | 9 | 277 | 0.0 | 0.0 | 0.00 | 0.00 | 0.00 | 77 | 1008.2 |
| 20260504024823 | 9 | 17 | 0.0 | 0.0 | 0.00 | 0.00 | 0.00 | 76 | 1008.4 |
| 20260504021628 | 10 | 327 | 0.0 | 0.0 | 0.00 | 0.00 | 0.00 | 75 | 1008.6 |
| 20260504020640 | 10 | 313 | 0.0 | 0.0 | 0.00 | 0.00 | 0.00 | 75 | 1008.6 |
| 20260504015648 | 10 | 12 | 0.0 | 0.0 | 0.00 | 0.00 | 0.00 | 74 | 1008.7 |
| 20260504014702 | 10 | 355 | 0.0 | 0.0 | 0.00 | 0.00 | 0.00 | 74 | 1008.7 |
| 20260504013726 | 10 | 0 | 0.0 | 0.0 | 0.00 | 0.00 | 0.00 | 74 | 1008.6 |
| 20260504012728 | 10 | 329 | 0.0 | 0.0 | 0.00 | 0.00 | 0.00 | 74 | 1008.6 |
| 20260504010626 | 10 | 294 | 0.0 | 0.0 | 0.00 | 0.00 | 0.00 | 73 | 1008.8 |
| 20260504005643 | 10 | 5 | 0.0 | 0.0 | 0.00 | 0.00 | 0.00 | 72 | 1008.8 |
| 20260504004650 | 10 | 291 | 0.0 | 0.0 | 0.00 | 0.00 | 0.00 | 71 | 1008.6 |
| 20260504003631 | 10 | 299 | 0.0 | 0.0 | 0.00 | 0.00 | 0.00 | 72 | 1008.8 |
| 20260504002623 | 10 | 317 | 0.0 | 0.0 | 0.00 | 0.00 | 0.00 | 72 | 1008.9 |
| 20260504001647 | 10 | 325 | 0.0 | 0.0 | 0.00 | 0.00 | 0.00 | 71 | 1009.1 |
| 20260504000624 | 10 | 273 | 0.0 | 3.2 | 0.00 | 0.00 | 0.00 | 71 | 1009.1 |
| 20260503235648 | 10 | 53 | 0.0 | 0.0 | 0.00 | 0.00 | 0.00 | 71 | 1009.2 |
| 20260503233445 | 11 | 331 | 0.0 | 1.6 | 0.00 | 0.00 | 0.00 | 71 | 1009.3 |
| 20260503232431 | 11 | 327 | 0.0 | 1.6 | 0.00 | 0.00 | 0.00 | 71 | 1009.4 |
| 20260503231356 | 10 | 323 | 0.0 | 0.0 | 0.00 | 0.00 | 0.00 | 72 | 1009.5 |
| 20260503230347 | 10 | 313 | 0.0 | 0.0 | 0.00 | 0.00 | 0.00 | 73 | 1009.7 |
| 20260503225348 | 10 | 292 | 0.0 | 0.0 | 0.00 | 0.00 | 0.00 | 73 | 1009.5 |
| 20260503222233 | 10 | 15 | 0.0 | 0.0 | 0.00 | 0.00 | 0.00 | 72 | 1010.2 |
| 20260503220129 | 10 | 312 | 0.0 | 0.0 | 0.00 | 0.00 | 0.00 | 72 | 1010.3 |
| 20260503215056 | 10 | 0 | 0.0 | 0.0 | 0.00 | 0.00 | 0.00 | 71 | 1010.2 |
| 20260503214112 | 10 | 282 | 0.0 | 0.0 | 0.00 | 0.00 | 0.00 | 71 | 1010.3 |
| 20260503213055 | 11 | 69 | 0.0 | 0.0 | 0.00 | 0.00 | 0.00 | 69 | 1010.5 |
| 20260503212027 | 11 | 96 | 0.0 | 0.0 | 0.00 | 0.00 | 0.00 | 69 | 1010.8 |
| 20260503211020 | 11 | 76 | 0.0 | 6.4 | 0.00 | 0.00 | 0.00 | 68 | 1011.2 |
| 20260503210017 | 11 | 93 | 1.6 | 20.9 | 0.00 | 0.00 | 0.00 | 68 | 1011.5 |
| 20260503205020 | 11 | 97 | 0.0 | 35.4 | 0.00 | 0.00 | 0.00 | 67 | 1011.7 |
| 20260503204023 | 11 | 138 | 4.8 | 35.4 | 0.00 | 0.00 | 0.00 | 65 | 1011.8 |
| 20260503203028 | 12 | 108 | 3.2 | 27.4 | 0.00 | 0.00 | 0.00 | 63 | 1012.0 |
| 20260503200900 | 13 | 83 | 4.8 | 33.8 | 0.00 | 0.00 | 0.00 | 58 | 1011.8 |
| 20260503194749 | 15 | 107 | 0.0 | 20.9 | 0.00 | 0.00 | 0.00 | 47 | 1011.3 |
| 20260503193715 | 15 | 124 | 0.0 | 27.4 | 0.00 | 0.00 | 0.00 | 47 | 1011.4 |
| 20260503192717 | 15 | 78 | 0.0 | 27.4 | 0.00 | 0.00 | 0.00 | 47 | 1011.6 |
| 20260503190559 | 15 | 101 | 0.0 | 24.1 | 0.00 | 0.00 | 0.00 | 46 | 1011.8 |
| 20260503185537 | 15 | 124 | 0.0 | 19.3 | 0.00 | 0.00 | 0.00 | 45 | 1011.9 |
| 20260503182254 | 15 | 59 | 0.0 | 27.4 | 0.00 | 0.00 | 0.00 | 44 | 1012.2 |
| 20260503181236 | 15 | 55 | 0.0 | 20.9 | 0.00 | 0.00 | 0.00 | 44 | 1012.4 |
| 20260503180217 | 15 | 78 | 1.6 | 22.5 | 0.00 | 0.00 | 0.00 | 44 | 1012.7 |
| 20260503175221 | 15 | 108 | 1.6 | 22.5 | 0.00 | 0.00 | 0.00 | 41 | 1012.8 |
| 20260503174234 | 15 | 125 | 0.0 | 22.5 | 0.00 | 0.00 | 0.00 | 43 | 1012.8 |
| 20260503173211 | 15 | 107 | 1.6 | 27.4 | 0.00 | 0.00 | 0.00 | 41 | 1012.9 |
| 20260503172230 | 15 | 98 | 1.6 | 24.1 | 0.00 | 0.00 | 0.00 | 44 | 1013.1 |
| 20260503171221 | 15 | 80 | 0.0 | 17.7 | 0.00 | 0.00 | 0.00 | 43 | 1013.3 |
| 20260503170219 | 15 | 44 | 1.6 | 12.9 | 0.00 | 0.00 | 0.00 | 42 | 1013.4 |